Year,Month,Day,Hour,Minute,Value (Times are PST for temperature in C)
2013,07,01,00,03,20.80
2013,07,01,00,04,20.80
2013,07,01,00,05,20.80
2013,07,01,00,06,20.80
2013,07,01,00,08,20.80
2013,07,01,00,09,20.80
2013,07,01,00,10,20.80
2013,07,01,00,11,20.70
2013,07,01,00,13,20.70
2013,07,01,00,14,20.70
2013,07,01,00,15,20.70
2013,07,01,00,17,20.70
2013,07,01,00,18,20.70
2013,07,01,00,19,20.70
2013,07,01,00,20,20.60
2013,07,01,00,21,20.60
2013,07,01,00,22,20.60
2013,07,01,00,23,20.60
2013,07,01,00,24,20.60
2013,07,01,00,25,20.60
2013,07,01,00,26,20.60
2013,07,01,00,27,20.60
2013,07,01,00,28,20.60
2013,07,01,00,29,20.60
2013,07,01,00,31,20.60
2013,07,01,00,32,20.60
2013,07,01,00,33,20.60
2013,07,01,00,34,20.50
2013,07,01,00,36,20.50
2013,07,01,00,37,20.50
2013,07,01,00,38,20.50
2013,07,01,00,40,20.50
2013,07,01,00,41,20.40
2013,07,01,00,42,20.40
2013,07,01,00,43,20.40
2013,07,01,00,44,20.40
2013,07,01,00,46,20.40
2013,07,01,00,47,20.40
2013,07,01,00,48,20.30
2013,07,01,00,49,20.30
2013,07,01,00,50,20.30
2013,07,01,00,51,20.30
2013,07,01,00,52,20.30
2013,07,01,00,53,20.30
2013,07,01,00,54,20.30
2013,07,01,00,55,20.20
2013,07,01,00,57,20.20
2013,07,01,00,58,20.20
2013,07,01,00,59,20.20
2013,07,01,01,01,20.20
2013,07,01,01,02,20.10
2013,07,01,01,03,20.10
2013,07,01,01,11,19.90
2013,07,01,01,12,19.90
2013,07,01,01,14,19.80
2013,07,01,01,15,19.80
2013,07,01,01,17,19.80
2013,07,01,01,18,19.80
2013,07,01,01,19,19.70
2013,07,01,01,20,19.70
2013,07,01,01,22,19.70
2013,07,01,01,23,19.70
2013,07,01,01,24,19.60
2013,07,01,01,25,19.60
2013,07,01,01,26,19.60
2013,07,01,01,27,19.60
2013,07,01,01,28,19.60
2013,07,01,01,29,19.50
2013,07,01,01,31,19.40
2013,07,01,01,32,19.40
2013,07,01,01,33,19.40
2013,07,01,01,34,19.40
2013,07,01,01,36,19.40
2013,07,01,01,37,19.30
2013,07,01,01,38,19.30
2013,07,01,01,39,19.30
2013,07,01,01,41,19.30
2013,07,01,01,42,19.20
2013,07,01,01,43,19.20
2013,07,01,01,44,19.20
2013,07,01,01,45,19.10
2013,07,01,01,47,19.10
2013,07,01,01,48,19.10
2013,07,01,01,49,19.00
2013,07,01,01,50,19.00
2013,07,01,01,52,18.90
2013,07,01,01,53,18.90
2013,07,01,01,54,18.90
2013,07,01,01,55,18.80
2013,07,01,01,56,18.80
2013,07,01,01,58,18.80
2013,07,01,01,59,18.80
2013,07,01,02,00,18.80
2013,07,01,02,01,18.80
2013,07,01,02,03,18.80
2013,07,01,02,04,18.70
2013,07,01,02,05,18.70
2013,07,01,02,06,18.70
2013,07,01,02,08,18.70
2013,07,01,02,09,18.70
2013,07,01,02,10,18.70
2013,07,01,02,11,18.70
2013,07,01,02,12,18.70
2013,07,01,02,13,18.60
2013,07,01,02,14,18.60
2013,07,01,02,15,18.60
2013,07,01,02,16,18.60
2013,07,01,02,18,18.60
2013,07,01,02,19,18.60
2013,07,01,02,20,18.60
2013,07,01,02,21,18.60
2013,07,01,02,22,18.60
2013,07,01,02,23,18.60
2013,07,01,02,24,18.60
2013,07,01,02,25,18.60
2013,07,01,02,27,18.60
2013,07,01,02,28,18.50
2013,07,01,02,29,18.50
2013,07,01,02,30,18.50
2013,07,01,02,32,18.50
2013,07,01,02,33,18.40
2013,07,01,02,34,18.40
2013,07,01,02,35,18.40
2013,07,01,02,37,18.40
2013,07,01,02,38,18.40
2013,07,01,02,39,18.40
2013,07,01,02,40,18.40
2013,07,01,02,42,18.40
2013,07,01,02,43,18.30
2013,07,01,02,44,18.30
2013,07,01,02,45,18.30
2013,07,01,02,46,18.30
2013,07,01,02,48,18.30
2013,07,01,02,49,18.30
2013,07,01,02,50,18.30
2013,07,01,02,51,18.30
2013,07,01,02,52,18.30
2013,07,01,02,53,18.30
2013,07,01,02,54,18.40
2013,07,01,02,55,18.40
2013,07,01,02,56,18.40
2013,07,01,02,58,18.40
2013,07,01,02,59,18.40
2013,07,01,03,01,18.50
2013,07,01,03,02,18.50
2013,07,01,03,04,18.60
2013,07,01,03,05,18.50
2013,07,01,03,06,18.40
2013,07,01,03,07,18.40
2013,07,01,03,09,18.40
2013,07,01,03,10,18.30
2013,07,01,03,11,18.30
2013,07,01,03,12,18.30
2013,07,01,03,13,18.30
2013,07,01,03,14,18.20
2013,07,01,03,15,18.20
2013,07,01,03,16,18.20
2013,07,01,03,18,18.20
2013,07,01,03,19,18.20
2013,07,01,03,20,18.10
2013,07,01,03,21,18.10
2013,07,01,03,23,18.10
2013,07,01,03,24,18.10
2013,07,01,03,25,18.10
2013,07,01,03,26,18.10
2013,07,01,03,28,18.10
2013,07,01,03,29,18.10
2013,07,01,03,30,18.10
2013,07,01,03,31,18.10
2013,07,01,03,32,18.10
2013,07,01,03,33,18.00
2013,07,01,03,34,18.00
2013,07,01,03,36,18.00
2013,07,01,03,37,18.00
2013,07,01,03,38,18.00
2013,07,01,03,39,18.00
2013,07,01,03,41,18.00
2013,07,01,03,42,18.00
2013,07,01,03,43,17.90
2013,07,01,03,45,17.90
2013,07,01,03,46,17.90
2013,07,01,03,47,17.90
2013,07,01,03,48,18.00
2013,07,01,03,49,17.90
2013,07,01,03,50,17.90
2013,07,01,03,51,17.90
2013,07,01,03,52,17.90
2013,07,01,03,53,17.90
2013,07,01,03,54,17.90
2013,07,01,03,55,17.90
2013,07,01,03,56,17.80
2013,07,01,03,58,17.80
2013,07,01,03,59,17.80
2013,07,01,04,00,17.80
2013,07,01,04,01,17.80
2013,07,01,04,03,17.80
2013,07,01,04,07,17.70
2013,07,01,04,08,17.70
2013,07,01,04,09,17.70
2013,07,01,04,10,17.70
2013,07,01,04,11,17.70
2013,07,01,04,12,17.70
2013,07,01,04,13,17.70
2013,07,01,04,14,17.70
2013,07,01,04,16,17.70
2013,07,01,04,17,17.70
2013,07,01,04,18,17.70
2013,07,01,04,19,17.70
2013,07,01,04,21,17.60
2013,07,01,04,22,17.60
2013,07,01,04,23,17.60
2013,07,01,04,25,17.60
2013,07,01,04,26,17.50
2013,07,01,04,27,17.50
2013,07,01,04,28,17.50
2013,07,01,04,30,17.50
2013,07,01,04,31,17.50
2013,07,01,04,32,17.50
2013,07,01,04,33,17.40
2013,07,01,04,35,17.40
2013,07,01,04,36,17.40
2013,07,01,04,37,17.40
2013,07,01,04,38,17.40
2013,07,01,04,40,17.40
2013,07,01,04,41,17.40
2013,07,01,04,42,17.30
2013,07,01,04,43,17.30
2013,07,01,04,44,17.30
2013,07,01,04,45,17.30
2013,07,01,04,46,17.30
2013,07,01,04,47,17.30
2013,07,01,04,48,17.30
2013,07,01,04,50,17.30
2013,07,01,04,51,17.30
2013,07,01,04,52,17.30
2013,07,01,04,53,17.30
2013,07,01,04,54,17.30
2013,07,01,04,56,17.30
2013,07,01,04,57,17.20
2013,07,01,04,58,17.20
2013,07,01,04,59,17.20
2013,07,01,05,00,17.20
2013,07,01,05,02,17.20
2013,07,01,05,03,17.20
2013,07,01,05,04,17.20
2013,07,01,05,05,17.20
2013,07,01,05,06,17.20
2013,07,01,05,07,17.20
2013,07,01,05,08,17.20
2013,07,01,05,09,17.20
2013,07,01,05,11,17.20
2013,07,01,05,12,17.20
2013,07,01,05,13,17.20
2013,07,01,05,14,17.20
2013,07,01,05,16,17.10
2013,07,01,05,17,17.10
2013,07,01,05,18,17.10
2013,07,01,05,19,17.10
2013,07,01,05,21,17.10
2013,07,01,05,22,17.10
2013,07,01,05,23,17.10
2013,07,01,05,25,17.10
2013,07,01,05,26,17.00
2013,07,01,05,27,17.10
2013,07,01,05,29,17.10
2013,07,01,05,30,17.10
2013,07,01,05,31,17.00
2013,07,01,05,32,17.00
2013,07,01,05,34,17.10
2013,07,01,05,35,17.00
2013,07,01,05,36,17.10
2013,07,01,05,37,17.10
2013,07,01,05,39,17.10
2013,07,01,05,40,17.10
2013,07,01,05,41,17.00
2013,07,01,05,42,17.00
2013,07,01,05,44,17.00
2013,07,01,05,45,17.00
2013,07,01,05,46,16.90
2013,07,01,05,47,16.90
2013,07,01,05,48,16.90
2013,07,01,05,50,16.90
2013,07,01,05,51,16.90
2013,07,01,05,52,16.90
2013,07,01,05,53,16.90
2013,07,01,05,55,16.90
2013,07,01,05,56,16.90
2013,07,01,05,57,16.90
2013,07,01,05,58,16.90
2013,07,01,05,59,16.90
2013,07,01,06,01,16.90
2013,07,01,06,02,16.90
2013,07,01,06,03,16.90
2013,07,01,06,04,16.90
2013,07,01,06,05,16.90
2013,07,01,06,06,16.90
2013,07,01,06,07,16.90
2013,07,01,06,08,16.90
2013,07,01,06,10,16.90
2013,07,01,06,11,16.90
2013,07,01,06,12,16.90
2013,07,01,06,13,16.90
2013,07,01,06,14,17.00
2013,07,01,06,15,17.00
2013,07,01,06,16,17.00
2013,07,01,06,17,17.10
2013,07,01,06,18,17.10
2013,07,01,06,19,17.10
2013,07,01,06,21,17.10
2013,07,01,06,22,17.10
2013,07,01,06,23,17.10
2013,07,01,06,24,17.10
2013,07,01,06,25,17.10
2013,07,01,06,26,17.10
2013,07,01,06,28,17.10
2013,07,01,06,29,17.20
2013,07,01,06,30,17.20
2013,07,01,06,31,17.20
2013,07,01,06,32,17.30
2013,07,01,06,33,17.30
2013,07,01,06,34,17.30
2013,07,01,06,35,17.40
2013,07,01,06,37,17.50
2013,07,01,06,38,17.60
2013,07,01,06,39,17.60
2013,07,01,06,41,17.70
2013,07,01,06,42,17.70
2013,07,01,06,43,17.70
2013,07,01,06,45,17.80
2013,07,01,06,46,17.80
2013,07,01,06,47,17.90
2013,07,01,06,48,18.00
2013,07,01,06,49,18.10
2013,07,01,06,51,18.10
2013,07,01,06,52,18.20
2013,07,01,06,53,18.30
2013,07,01,06,54,18.40
2013,07,01,06,55,18.40
2013,07,01,06,56,18.50
2013,07,01,06,57,18.60
2013,07,01,06,58,18.70
2013,07,01,06,59,18.70
2013,07,01,07,01,18.80
2013,07,01,07,02,18.80
2013,07,01,07,03,18.90
2013,07,01,07,04,18.90
2013,07,01,07,06,19.10
2013,07,01,07,07,19.20
2013,07,01,07,08,19.20
2013,07,01,07,09,19.30
2013,07,01,07,10,19.30
2013,07,01,07,12,19.40
2013,07,01,07,13,19.40
2013,07,01,07,14,19.50
2013,07,01,07,15,19.50
2013,07,01,07,17,19.60
2013,07,01,07,18,19.60
2013,07,01,07,19,19.60
2013,07,01,07,20,19.70
2013,07,01,07,21,19.70
2013,07,01,07,23,19.70
2013,07,01,07,24,19.80
2013,07,01,07,25,19.90
2013,07,01,07,26,19.90
2013,07,01,07,28,20.00
2013,07,01,07,29,20.10
2013,07,01,07,30,20.10
2013,07,01,07,31,20.20
2013,07,01,07,33,20.20
2013,07,01,07,34,20.30
2013,07,01,07,35,20.30
2013,07,01,07,36,20.40
2013,07,01,07,37,20.40
2013,07,01,07,39,20.50
2013,07,01,07,40,20.60
2013,07,01,07,41,20.70
2013,07,01,07,42,20.70
2013,07,01,07,44,20.80
2013,07,01,07,45,20.90
2013,07,01,07,46,20.90
2013,07,01,07,47,21.00
2013,07,01,07,49,21.10
2013,07,01,07,50,21.20
2013,07,01,07,51,21.30
2013,07,01,07,52,21.40
2013,07,01,07,54,21.50
2013,07,01,07,55,21.70
2013,07,01,07,56,21.80
2013,07,01,07,57,21.80
2013,07,01,07,59,21.90
2013,07,01,08,00,22.10
2013,07,01,08,01,22.20
2013,07,01,08,02,22.20
2013,07,01,08,03,22.20
2013,07,01,08,04,22.10
2013,07,01,08,05,22.10
2013,07,01,08,06,22.10
2013,07,01,08,07,22.10
2013,07,01,08,08,22.10
2013,07,01,08,09,22.00
2013,07,01,08,10,22.10
2013,07,01,08,11,22.10
2013,07,01,08,12,22.20
2013,07,01,08,13,22.30
2013,07,01,08,15,22.40
2013,07,01,08,16,22.50
2013,07,01,08,17,22.60
2013,07,01,08,18,22.70
2013,07,01,08,20,22.80
2013,07,01,08,21,22.90
2013,07,01,08,22,23.10
2013,07,01,08,23,23.20
2013,07,01,08,25,23.20
2013,07,01,08,26,23.30
2013,07,01,08,27,23.30
2013,07,01,08,28,23.40
2013,07,01,08,29,23.40
2013,07,01,08,30,23.60
2013,07,01,08,31,23.70
2013,07,01,08,33,23.70
2013,07,01,08,34,23.80
2013,07,01,08,35,23.80
2013,07,01,08,36,23.80
2013,07,01,08,38,23.80
2013,07,01,08,39,23.90
2013,07,01,08,40,23.90
2013,07,01,08,41,24.00
2013,07,01,08,43,23.90
2013,07,01,08,44,23.90
2013,07,01,08,45,23.90
2013,07,01,08,46,23.90
2013,07,01,08,48,23.90
2013,07,01,08,49,23.90
2013,07,01,08,50,23.80
2013,07,01,08,51,23.70
2013,07,01,08,52,23.70
2013,07,01,08,54,23.60
2013,07,01,08,55,23.50
2013,07,01,08,56,23.40
2013,07,01,08,57,23.30
2013,07,01,08,59,23.30
2013,07,01,09,00,23.30
2013,07,01,09,01,23.30
2013,07,01,09,02,23.30
2013,07,01,09,03,23.30
2013,07,01,09,05,23.30
2013,07,01,09,06,23.30
2013,07,01,09,07,23.30
2013,07,01,09,09,23.30
2013,07,01,09,10,23.30
2013,07,01,09,11,23.30
2013,07,01,09,12,23.40
2013,07,01,09,13,23.40
2013,07,01,09,14,23.40
2013,07,01,09,16,23.40
2013,07,01,09,17,23.50
2013,07,01,09,18,23.50
2013,07,01,09,19,23.50
2013,07,01,09,20,23.50
2013,07,01,09,22,23.50
2013,07,01,09,23,23.60
2013,07,01,09,24,23.70
2013,07,01,09,25,23.80
2013,07,01,09,26,23.90
2013,07,01,09,27,24.00
2013,07,01,09,28,24.10
2013,07,01,09,29,24.20
2013,07,01,09,31,24.20
2013,07,01,09,32,24.30
2013,07,01,09,33,24.30
2013,07,01,09,34,24.30
2013,07,01,09,36,24.20
2013,07,01,09,37,24.20
2013,07,01,09,38,24.20
2013,07,01,09,39,24.20
2013,07,01,09,41,24.10
2013,07,01,09,42,24.00
2013,07,01,09,43,23.90
2013,07,01,09,45,23.90
2013,07,01,09,46,23.90
2013,07,01,09,47,23.90
2013,07,01,09,48,23.80
2013,07,01,09,50,23.70
2013,07,01,09,51,23.70
2013,07,01,09,52,23.80
2013,07,01,09,54,23.90
2013,07,01,09,55,23.90
2013,07,01,09,56,23.90
2013,07,01,09,57,23.90
2013,07,01,09,59,23.80
2013,07,01,10,00,23.80
2013,07,01,10,01,23.90
2013,07,01,10,02,24.00
2013,07,01,10,04,24.10
2013,07,01,10,05,24.20
2013,07,01,10,06,24.20
2013,07,01,10,07,24.20
2013,07,01,10,09,24.30
2013,07,01,10,10,24.40
2013,07,01,10,11,24.30
2013,07,01,10,12,24.30
2013,07,01,10,13,24.20
2013,07,01,10,15,24.20
2013,07,01,10,16,24.20
2013,07,01,10,17,24.30
2013,07,01,10,18,24.30
2013,07,01,10,19,24.30
2013,07,01,10,20,24.40
2013,07,01,10,22,24.30
2013,07,01,10,23,24.30
2013,07,01,10,24,24.20
2013,07,01,10,25,24.10
2013,07,01,10,27,24.10
2013,07,01,10,28,24.00
2013,07,01,10,29,24.10
2013,07,01,10,30,24.10
2013,07,01,10,31,24.10
2013,07,01,10,32,24.10
2013,07,01,10,33,23.90
2013,07,01,10,34,23.80
2013,07,01,10,36,23.80
2013,07,01,10,37,23.80
2013,07,01,10,38,23.70
2013,07,01,10,39,23.80
2013,07,01,10,41,23.80
2013,07,01,10,42,23.80
2013,07,01,10,43,23.90
2013,07,01,10,44,23.90
2013,07,01,10,45,23.90
2013,07,01,10,46,24.00
2013,07,01,10,47,24.10
2013,07,01,10,48,24.10
2013,07,01,10,49,24.10
2013,07,01,10,51,24.10
2013,07,01,10,52,24.20
2013,07,01,10,53,24.20
2013,07,01,10,55,24.30
2013,07,01,10,56,24.30
2013,07,01,10,57,24.30
2013,07,01,10,58,24.30
2013,07,01,10,59,24.40
2013,07,01,11,00,24.40
2013,07,01,11,02,24.40
2013,07,01,11,03,24.40
2013,07,01,11,04,24.40
2013,07,01,11,06,24.40
2013,07,01,11,07,24.50
2013,07,01,11,08,24.50
2013,07,01,11,09,24.50
2013,07,01,11,10,24.60
2013,07,01,11,11,24.60
2013,07,01,11,12,24.50
2013,07,01,11,13,24.50
2013,07,01,11,15,24.40
2013,07,01,11,16,24.40
2013,07,01,11,17,24.40
2013,07,01,11,18,24.40
2013,07,01,11,19,24.40
2013,07,01,11,21,24.60
2013,07,01,11,22,24.70
2013,07,01,11,23,24.80
2013,07,01,11,25,24.80
2013,07,01,11,26,24.90
2013,07,01,11,27,25.00
2013,07,01,11,28,25.00
2013,07,01,11,30,25.10
2013,07,01,11,31,25.10
2013,07,01,11,32,25.20
2013,07,01,11,33,25.30
2013,07,01,11,35,25.30
2013,07,01,11,36,25.40
2013,07,01,11,37,25.40
2013,07,01,11,38,25.50
2013,07,01,11,40,25.60
2013,07,01,11,41,25.60
2013,07,01,11,42,25.70
2013,07,01,11,43,25.70
2013,07,01,11,45,25.70
2013,07,01,11,46,25.70
2013,07,01,11,47,25.80
2013,07,01,11,48,25.80
2013,07,01,11,49,25.80
2013,07,01,11,50,25.80
2013,07,01,11,51,25.90
2013,07,01,11,52,26.00
2013,07,01,11,54,26.10
2013,07,01,11,55,26.10
2013,07,01,11,56,26.20
2013,07,01,11,57,26.20
2013,07,01,11,59,26.30
2013,07,01,12,00,26.40
2013,07,01,12,01,26.60
2013,07,01,12,02,26.70
2013,07,01,12,04,26.80
2013,07,01,12,05,26.80
2013,07,01,12,06,26.90
2013,07,01,12,07,26.80
2013,07,01,12,08,26.70
2013,07,01,12,10,26.70
2013,07,01,12,11,26.60
2013,07,01,12,12,26.60
2013,07,01,12,13,26.60
2013,07,01,12,14,26.60
2013,07,01,12,15,26.70
2013,07,01,12,17,26.70
2013,07,01,12,18,26.80
2013,07,01,12,19,26.80
2013,07,01,12,20,26.80
2013,07,01,12,22,26.80
2013,07,01,12,23,26.80
2013,07,01,12,24,26.70
2013,07,01,12,25,26.70
2013,07,01,12,27,26.70
2013,07,01,12,28,26.80
2013,07,01,12,29,26.80
2013,07,01,12,30,26.70
2013,07,01,12,32,26.70
2013,07,01,12,33,26.70
2013,07,01,12,34,26.70
2013,07,01,12,36,26.70
2013,07,01,12,37,26.80
2013,07,01,12,38,26.90
2013,07,01,12,39,26.90
2013,07,01,12,40,27.10
2013,07,01,12,42,27.10
2013,07,01,12,43,27.20
2013,07,01,12,44,27.20
2013,07,01,12,45,27.10
2013,07,01,12,47,26.90
2013,07,01,12,48,26.90
2013,07,01,12,49,26.80
2013,07,01,12,50,26.80
2013,07,01,12,51,26.80
2013,07,01,12,52,26.80
2013,07,01,12,53,26.70
2013,07,01,12,54,26.70
2013,07,01,12,55,26.70
2013,07,01,12,56,26.60
2013,07,01,12,58,26.60
2013,07,01,12,59,26.50
2013,07,01,13,00,26.40
2013,07,01,13,01,26.40
2013,07,01,13,03,26.40
2013,07,01,13,04,26.40
2013,07,01,13,05,26.40
2013,07,01,13,06,26.30
2013,07,01,13,08,26.30
2013,07,01,13,09,26.40
2013,07,01,13,10,26.50
2013,07,01,13,11,26.60
2013,07,01,13,13,26.70
2013,07,01,13,14,26.80
2013,07,01,13,15,26.80
2013,07,01,13,16,26.80
2013,07,01,13,17,26.80
2013,07,01,13,19,26.90
2013,07,01,13,20,26.90
2013,07,01,13,21,26.90
2013,07,01,13,22,26.90
2013,07,01,13,23,26.90
2013,07,01,13,24,26.80
2013,07,01,13,25,26.80
2013,07,01,13,26,26.70
2013,07,01,13,28,26.60
2013,07,01,13,29,26.40
2013,07,01,13,30,26.40
2013,07,01,13,32,26.30
2013,07,01,13,33,26.30
2013,07,01,13,34,26.30
2013,07,01,13,35,26.30
2013,07,01,13,36,26.30
2013,07,01,13,37,26.30
2013,07,01,13,38,26.30
2013,07,01,13,39,26.30
2013,07,01,13,41,26.40
2013,07,01,13,42,26.40
2013,07,01,13,43,26.50
2013,07,01,13,44,26.60
2013,07,01,13,45,26.70
2013,07,01,13,47,26.80
2013,07,01,13,48,26.80
2013,07,01,13,49,26.70
2013,07,01,13,50,26.70
2013,07,01,13,52,26.60
2013,07,01,13,53,26.60
2013,07,01,13,54,26.60
2013,07,01,13,55,26.60
2013,07,01,13,56,26.70
2013,07,01,13,58,26.70
2013,07,01,13,59,26.70
2013,07,01,14,00,26.60
2013,07,01,14,01,26.60
2013,07,01,14,03,26.60
2013,07,01,14,04,26.60
2013,07,01,14,05,26.50
2013,07,01,14,06,26.50
2013,07,01,14,08,26.40
2013,07,01,14,09,26.50
2013,07,01,14,10,26.60
2013,07,01,14,11,26.70
2013,07,01,14,13,26.80
2013,07,01,14,14,26.90
2013,07,01,14,15,26.90
2013,07,01,14,16,26.90
2013,07,01,14,18,26.90
2013,07,01,14,19,26.90
2013,07,01,14,20,27.00
2013,07,01,14,21,27.20
2013,07,01,14,23,27.30
2013,07,01,14,24,27.60
2013,07,01,14,25,27.70
2013,07,01,14,27,27.60
2013,07,01,14,28,27.50
2013,07,01,14,29,27.30
2013,07,01,14,30,27.30
2013,07,01,14,31,27.30
2013,07,01,14,33,27.20
2013,07,01,14,34,27.20
2013,07,01,14,35,27.20
2013,07,01,14,36,27.10
2013,07,01,14,37,27.10
2013,07,01,14,38,27.00
2013,07,01,14,39,26.90
2013,07,01,14,40,26.80
2013,07,01,14,41,26.80
2013,07,01,14,43,26.90
2013,07,01,14,44,27.00
2013,07,01,14,45,27.10
2013,07,01,14,46,27.20
2013,07,01,14,47,27.30
2013,07,01,14,49,27.30
2013,07,01,14,50,27.30
2013,07,01,14,51,27.20
2013,07,01,14,52,27.10
2013,07,01,14,53,27.00
2013,07,01,14,55,27.10
2013,07,01,14,56,27.10
2013,07,01,14,57,27.00
2013,07,01,14,58,27.00
2013,07,01,14,59,27.00
2013,07,01,15,01,27.10
2013,07,01,15,02,27.00
2013,07,01,15,03,27.10
2013,07,01,15,05,27.10
2013,07,01,15,06,27.30
2013,07,01,15,07,27.40
2013,07,01,15,09,27.40
2013,07,01,15,10,27.60
2013,07,01,15,11,27.60
2013,07,01,15,12,27.80
2013,07,01,15,14,27.80
2013,07,01,15,15,27.90
2013,07,01,15,16,28.00
2013,07,01,15,18,28.10
2013,07,01,15,19,28.20
2013,07,01,15,20,28.20
2013,07,01,15,21,28.30
2013,07,01,15,23,28.40
2013,07,01,15,24,28.40
2013,07,01,15,25,28.40
2013,07,01,15,27,28.60
2013,07,01,15,28,28.60
2013,07,01,15,29,28.60
2013,07,01,15,30,28.70
2013,07,01,15,31,28.70
2013,07,01,15,32,28.80
2013,07,01,15,33,28.80
2013,07,01,15,34,28.90
2013,07,01,15,35,29.10
2013,07,01,15,37,29.10
2013,07,01,15,38,29.20
2013,07,01,15,39,29.20
2013,07,01,15,40,29.20
2013,07,01,15,41,29.10
2013,07,01,15,42,29.10
2013,07,01,15,43,29.10
2013,07,01,15,44,29.00
2013,07,01,15,45,28.90
2013,07,01,15,46,28.90
2013,07,01,15,47,28.80
2013,07,01,15,48,28.80
2013,07,01,15,49,28.80
2013,07,01,15,50,28.80
2013,07,01,15,51,28.80
2013,07,01,15,52,28.80
2013,07,01,15,53,28.80
2013,07,01,15,54,28.80
2013,07,01,15,55,28.70
2013,07,01,15,56,28.70
2013,07,01,15,57,28.70
2013,07,01,15,58,28.60
2013,07,01,15,59,28.60
2013,07,01,16,00,28.50
2013,07,01,16,01,28.40
2013,07,01,16,02,28.40
2013,07,01,16,03,28.40
2013,07,01,16,04,28.40
2013,07,01,16,06,28.30
2013,07,01,16,07,28.40
2013,07,01,16,08,28.40
2013,07,01,16,09,28.40
2013,07,01,16,11,28.40
2013,07,01,16,12,28.50
2013,07,01,16,13,28.50
2013,07,01,16,14,28.50
2013,07,01,16,16,28.60
2013,07,01,16,17,28.60
2013,07,01,16,18,28.70
2013,07,01,16,20,28.70
2013,07,01,16,21,28.70
2013,07,01,16,22,28.60
2013,07,01,16,23,28.60
2013,07,01,16,25,28.60
2013,07,01,16,26,28.50
2013,07,01,16,27,28.30
2013,07,01,16,28,28.30
2013,07,01,16,30,28.30
2013,07,01,16,31,28.30
2013,07,01,16,32,28.20
2013,07,01,16,33,28.20
2013,07,01,16,34,28.20
2013,07,01,16,36,28.20
2013,07,01,16,37,28.20
2013,07,01,16,38,28.10
2013,07,01,16,39,28.10
2013,07,01,16,40,28.20
2013,07,01,16,41,28.20
2013,07,01,16,42,28.20
2013,07,01,16,43,28.30
2013,07,01,16,44,28.30
2013,07,01,16,46,28.30
2013,07,01,16,47,28.20
2013,07,01,16,48,28.10
2013,07,01,16,49,28.10
2013,07,01,16,50,28.10
2013,07,01,16,51,28.00
2013,07,01,16,52,27.90
2013,07,01,16,53,27.90
2013,07,01,16,54,27.80
2013,07,01,16,55,27.80
2013,07,01,16,56,27.80
2013,07,01,16,57,27.70
2013,07,01,16,58,27.70
2013,07,01,16,59,27.80
2013,07,01,17,00,27.80
2013,07,01,17,01,27.80
2013,07,01,17,02,27.80
2013,07,01,17,03,27.80
2013,07,01,17,04,27.90
2013,07,01,17,05,27.90
2013,07,01,17,06,27.90
2013,07,01,17,07,28.00
2013,07,01,17,08,28.00
2013,07,01,17,09,28.10
2013,07,01,17,10,28.00
2013,07,01,17,11,28.00
2013,07,01,17,12,28.10
2013,07,01,17,13,28.10
2013,07,01,17,14,28.10
2013,07,01,17,15,28.10
2013,07,01,17,16,28.10
2013,07,01,17,17,28.10
2013,07,01,17,18,28.10
2013,07,01,17,19,28.10
2013,07,01,17,20,27.90
2013,07,01,17,21,27.90
2013,07,01,17,22,27.90
2013,07,01,17,23,27.90
2013,07,01,17,24,27.80
2013,07,01,17,25,27.70
2013,07,01,17,26,27.40
2013,07,01,17,27,27.40
2013,07,01,17,28,27.30
2013,07,01,17,29,27.30
2013,07,01,17,30,27.30
2013,07,01,17,31,27.20
2013,07,01,17,32,27.10
2013,07,01,17,33,27.00
2013,07,01,17,34,26.90
2013,07,01,17,35,26.70
2013,07,01,17,36,26.70
2013,07,01,17,37,26.70
2013,07,01,17,38,26.60
2013,07,01,17,39,26.60
2013,07,01,17,40,26.60
2013,07,01,17,42,26.60
2013,07,01,17,43,26.50
2013,07,01,17,44,26.50
2013,07,01,17,45,26.60
2013,07,01,17,46,26.60
2013,07,01,17,47,26.60
2013,07,01,17,48,26.60
2013,07,01,17,49,26.60
2013,07,01,17,50,26.70
2013,07,01,17,51,26.70
2013,07,01,17,52,26.70
2013,07,01,17,53,26.70
2013,07,01,17,54,26.70
2013,07,01,17,55,26.70
2013,07,01,17,56,26.80
2013,07,01,17,57,26.80
2013,07,01,17,58,26.80
2013,07,01,17,59,26.80
2013,07,01,18,00,26.70
2013,07,01,18,01,26.70
2013,07,01,18,02,26.70
2013,07,01,18,03,26.60
2013,07,01,18,04,26.60
2013,07,01,18,05,26.60
2013,07,01,18,06,26.60
2013,07,01,18,07,26.50
2013,07,01,18,08,26.50
2013,07,01,18,09,26.50
2013,07,01,18,11,26.40
2013,07,01,18,12,26.40
2013,07,01,18,13,26.40
2013,07,01,18,14,26.30
2013,07,01,18,16,26.40
2013,07,01,18,17,26.40
2013,07,01,18,18,26.30
2013,07,01,18,19,26.30
2013,07,01,18,20,26.20
2013,07,01,18,21,26.20
2013,07,01,18,22,26.10
2013,07,01,18,23,25.90
2013,07,01,18,24,25.80
2013,07,01,18,26,25.80
2013,07,01,18,27,25.80
2013,07,01,18,28,25.80
2013,07,01,18,29,25.80
2013,07,01,18,31,25.80
2013,07,01,18,32,25.80
2013,07,01,18,33,25.70
2013,07,01,18,35,25.60
2013,07,01,18,36,25.30
2013,07,01,18,37,25.20
2013,07,01,18,38,25.10
2013,07,01,18,40,25.00
2013,07,01,18,41,24.90
2013,07,01,18,42,24.80
2013,07,01,18,43,24.80
2013,07,01,18,45,24.80
2013,07,01,18,46,24.70
2013,07,01,18,47,24.70
2013,07,01,18,48,24.60
2013,07,01,18,49,24.60
2013,07,01,18,51,24.60
2013,07,01,18,52,24.60
2013,07,01,18,53,24.60
2013,07,01,18,55,24.50
2013,07,01,18,56,24.40
2013,07,01,18,57,24.40
2013,07,01,18,58,24.40
2013,07,01,18,59,24.30
2013,07,01,19,01,24.30
2013,07,01,19,02,24.20
2013,07,01,19,03,24.20
2013,07,01,19,04,24.20
2013,07,01,19,05,24.20
2013,07,01,19,06,24.20
2013,07,01,19,07,24.20
2013,07,01,19,08,24.20
2013,07,01,19,09,24.20
2013,07,01,19,11,24.30
2013,07,01,19,12,24.30
2013,07,01,19,13,24.30
2013,07,01,19,14,24.30
2013,07,01,19,15,24.30
2013,07,01,19,17,24.30
2013,07,01,19,18,24.30
2013,07,01,19,19,24.30
2013,07,01,19,21,24.30
2013,07,01,19,22,24.20
2013,07,01,19,23,24.20
2013,07,01,19,24,24.10
2013,07,01,19,26,24.10
2013,07,01,19,27,24.10
2013,07,01,19,28,24.00
2013,07,01,19,29,24.00
2013,07,01,19,31,23.90
2013,07,01,19,32,23.90
2013,07,01,19,33,23.80
2013,07,01,19,34,23.80
2013,07,01,19,36,23.70
2013,07,01,19,37,23.70
2013,07,01,19,38,23.70
2013,07,01,19,39,23.70
2013,07,01,19,41,23.70
2013,07,01,19,42,23.70
2013,07,01,19,43,23.80
2013,07,01,19,45,23.80
2013,07,01,19,46,23.80
2013,07,01,19,47,23.90
2013,07,01,19,48,23.90
2013,07,01,19,50,23.90
2013,07,01,19,51,24.00
2013,07,01,19,52,24.00
2013,07,01,19,53,24.00
2013,07,01,19,55,23.90
2013,07,01,19,56,23.90
2013,07,01,19,57,23.80
2013,07,01,19,58,23.80
2013,07,01,19,59,23.80
2013,07,01,20,00,23.70
2013,07,01,20,01,23.70
2013,07,01,20,02,23.60
2013,07,01,20,04,23.60
2013,07,01,20,05,23.50
2013,07,01,20,06,23.40
2013,07,01,20,07,23.30
2013,07,01,20,08,23.20
2013,07,01,20,10,23.20
2013,07,01,20,11,23.10
2013,07,01,20,12,23.00
2013,07,01,20,13,23.00
2013,07,01,20,14,22.90
2013,07,01,20,15,22.90
2013,07,01,20,16,22.90
2013,07,01,20,17,22.80
2013,07,01,20,18,22.80
2013,07,01,20,20,22.80
2013,07,01,20,21,22.70
2013,07,01,20,22,22.70
2013,07,01,20,24,22.60
2013,07,01,20,25,22.60
2013,07,01,20,26,22.50
2013,07,01,20,28,22.50
2013,07,01,20,29,22.40
2013,07,01,20,30,22.40
2013,07,01,20,31,22.40
2013,07,01,20,32,22.40
2013,07,01,20,33,22.40
2013,07,01,20,34,22.40
2013,07,01,20,35,22.40
2013,07,01,20,36,22.40
2013,07,01,20,37,22.40
2013,07,01,20,38,22.30
2013,07,01,20,39,22.30
2013,07,01,20,40,22.20
2013,07,01,20,41,22.20